Date String (YYYY-MM-DD hh:mm:ss) UTC,Instrument flags,Ambient pressure (hPa),Sample flow (lpm),Bypass flow (lpm),Sample temperature (°C),Ambient temperature (°C),ASC tube jacket temperature (°C),LED temperature (°C),Box temperature (°C),Sample RH (%),Span deviation,Mass concentration (μg/m³),Mass concentration (μg/m³),Mass concentration (μg/m³)
DateTimeUTC,F1_M11,P_M11,Q1_M11,Q2_M11,T1_M11,T2_M11,T3_M11,T4_M11,T5_M11,U1_M11,ZSPAN_M11,X0_M11,X2_M11,X1_M11
2023-04-27 21:00:00,,0823.0,5.00,0.00,28.4,26.8,00.0,36.8,30.0,08.9,0000.0,0008.92,0003.19,0001.58
2023-04-27 21:01:00,,0822.8,5.00,0.00,28.4,26.8,00.0,36.8,30.0,09.2,0000.0,0009.00,0003.23,0001.59
2023-04-27 21:02:00,,0822.7,5.00,0.00,28.4,26.8,00.0,36.8,30.0,09.0,0000.0,0009.00,0003.25,0001.59
2023-04-27 21:03:00,,0822.9,5.01,0.00,28.4,26.8,00.0,36.8,30.0,09.0,0000.0,0009.12,0003.27,0001.60
2023-04-27 21:04:00,,0822.7,5.00,0.00,28.5,26.8,00.0,36.8,30.0,09.0,0000.0,0008.63,0003.32,0001.61
2023-04-27 21:05:00,,0822.6,5.00,0.00,28.5,26.8,00.0,36.8,30.0,09.0,0000.0,0008.60,0003.35,0001.61
2023-04-27 21:06:00,,0822.7,5.00,0.00,28.5,26.8,00.0,36.8,30.0,08.9,0000.0,0008.50,0003.35,0001.62
2023-04-27 21:07:00,,0822.4,5.00,0.00,28.5,26.8,00.0,36.8,30.0,09.4,0000.0,0008.42,0003.35,0001.62
2023-04-27 21:08:00,,0822.5,5.00,0.00,28.5,26.9,00.0,36.8,30.0,09.4,0000.0,0007.97,0003.32,0001.61
2023-04-27 21:09:00,,0822.6,4.99,0.00,28.5,26.9,00.0,36.8,30.0,09.2,0000.0,0007.89,0003.34,0001.61
2023-04-27 21:10:00,,0822.4,4.99,0.00,28.5,26.9,00.0,36.8,30.0,09.3,0000.0,0007.70,0003.34,0001.63
2023-04-27 21:11:00,,0822.4,5.00,0.00,28.5,26.9,00.0,36.8,30.0,08.9,0000.0,0007.72,0003.39,0001.63
2023-04-27 21:12:00,,0822.4,5.00,0.00,28.5,26.9,00.0,36.8,30.0,09.1,0000.0,0007.74,0003.40,0001.62
2023-04-27 21:13:00,,0822.3,5.00,0.00,28.5,26.9,00.0,36.8,30.0,09.2,0000.0,0007.61,0003.39,0001.63
2023-04-27 21:14:00,,0822.2,5.00,0.00,28.5,26.9,00.0,36.8,30.0,09.3,0000.0,0007.53,0003.40,0001.63
2023-04-27 21:15:00,,0822.3,4.99,0.00,28.5,26.9,00.0,36.8,30.0,09.3,0000.0,0007.75,0003.47,0001.65
2023-04-27 21:16:00,,0822.4,4.99,0.00,28.5,26.9,00.0,36.8,30.0,09.4,0000.0,0007.85,0003.46,0001.67
2023-04-27 21:17:00,,0822.4,5.01,0.00,28.5,26.9,00.0,36.8,30.0,09.4,0000.0,0008.40,0003.48,0001.67
2023-04-27 21:18:00,,0822.4,5.00,0.00,28.5,26.9,00.0,36.8,30.0,09.5,0000.0,0008.44,0003.49,0001.67
2023-04-27 21:19:00,,0822.4,5.00,0.00,28.5,26.9,00.0,36.8,30.0,09.6,0000.0,0008.60,0003.51,0001.68
2023-04-27 21:20:00,,0822.4,4.98,0.00,28.5,26.9,00.0,36.8,30.0,09.5,0000.0,0008.63,0003.50,0001.70
2023-04-27 21:21:00,,0822.3,5.00,0.00,28.5,26.9,00.0,36.8,30.0,09.5,0000.0,0008.68,0003.50,0001.67
2023-04-27 21:22:00,,0822.2,5.00,0.00,28.5,26.9,00.0,36.8,30.0,09.5,0000.0,0008.72,0003.49,0001.66
2023-04-27 21:23:00,,0822.3,5.01,0.00,28.5,26.9,00.0,36.8,30.0,09.4,0000.0,0009.17,0003.51,0001.66
2023-04-27 21:24:00,,0822.4,5.00,0.00,28.5,26.9,00.0,36.8,30.0,09.5,0000.0,0009.29,0003.50,0001.66
2023-04-27 21:25:00,,0822.4,5.00,0.00,28.5,26.9,00.0,36.8,30.0,09.7,0000.0,0009.34,0003.51,0001.65
2023-04-27 21:26:00,,0822.3,5.01,0.00,28.6,27.0,00.0,36.9,30.0,09.8,0000.0,0009.26,0003.50,0001.63
2023-04-27 21:27:00,,0822.3,5.00,0.00,28.6,27.0,00.0,36.9,30.1,09.9,0000.0,0009.25,0003.53,0001.63
2023-04-27 21:28:00,,0822.2,5.00,0.00,28.6,27.0,00.0,36.9,30.1,09.9,0000.0,0009.08,0003.55,0001.62
2023-04-27 21:29:00,,0822.2,5.01,0.00,28.6,27.0,00.0,36.9,30.1,10.0,0000.0,0009.53,0003.55,0001.62
2023-04-27 21:30:00,,0822.2,4.98,0.00,28.6,27.0,00.0,36.9,30.1,10.4,0000.0,0009.44,0003.55,0001.61
2023-04-27 21:31:00,,0822.2,4.99,0.00,28.6,27.1,00.0,36.9,30.1,10.5,0000.0,0009.40,0003.58,0001.60
2023-04-27 21:32:00,,0822.1,5.00,0.00,28.6,27.1,00.0,36.9,30.1,10.1,0000.0,0009.40,0003.61,0001.61
2023-04-27 21:33:00,,0822.1,5.00,0.00,28.6,27.1,00.0,36.9,30.2,09.7,0000.0,0009.26,0003.58,0001.61
2023-04-27 21:34:00,,0822.1,5.01,0.00,28.6,27.1,00.0,36.9,30.2,09.6,0000.0,0008.95,0003.55,0001.60
2023-04-27 21:35:00,,0822.1,5.00,0.00,28.6,27.1,00.0,36.9,30.1,09.8,0000.0,0009.07,0003.57,0001.59
2023-04-27 21:36:00,,0822.0,4.99,0.00,28.6,27.1,00.0,36.9,30.2,10.2,0000.0,0009.14,0003.58,0001.59
2023-04-27 21:37:00,,0822.0,5.01,0.00,28.6,27.1,00.0,36.9,30.2,09.8,0000.0,0009.46,0003.59,0001.59
2023-04-27 21:38:00,,0822.0,5.01,0.00,28.6,27.1,00.0,36.9,30.2,09.8,0000.0,0009.79,0003.57,0001.58
2023-04-27 21:39:00,,0821.9,5.00,0.00,28.6,27.1,00.0,36.9,30.2,10.2,0000.0,0009.57,0003.53,0001.57
2023-04-27 21:40:00,,0822.0,5.00,0.00,28.7,27.1,00.0,36.9,30.2,09.7,0000.0,0008.89,0003.46,0001.56
2023-04-27 21:41:00,,0821.9,4.98,0.00,28.7,27.1,00.0,37.0,30.2,09.8,0000.0,0008.92,0003.43,0001.55
2023-04-27 21:42:00,,0822.0,4.99,0.00,28.7,27.1,00.0,37.0,30.2,09.7,0000.0,0009.26,0003.40,0001.54
2023-04-27 21:43:00,,0821.9,5.00,0.00,28.7,27.2,00.0,37.0,30.2,09.6,0000.0,0009.22,0003.40,0001.54
2023-04-27 21:44:00,,0822.0,5.00,0.00,28.7,27.2,00.0,37.0,30.2,09.7,0000.0,0009.32,0003.44,0001.56
2023-04-27 21:45:00,,0822.0,5.00,0.00,28.7,27.2,00.0,37.0,30.2,09.7,0000.0,0009.20,0003.43,0001.55
2023-04-27 21:46:00,,0822.0,5.00,0.00,28.7,27.2,00.0,37.0,30.2,10.1,0000.0,0009.04,0003.40,0001.57
2023-04-27 21:47:00,,0821.9,4.99,0.00,28.7,27.2,00.0,37.0,30.2,10.4,0000.0,0008.89,0003.36,0001.57
2023-04-27 21:48:00,,0822.0,5.01,0.00,28.7,27.2,00.0,37.0,30.3,10.2,0000.0,0008.73,0003.32,0001.57
2023-04-27 21:49:00,,0822.0,5.00,0.00,28.7,27.2,00.0,37.0,30.3,10.0,0000.0,0008.45,0003.30,0001.57
2023-04-27 21:50:00,,0821.9,5.00,0.00,28.7,27.2,00.0,37.0,30.3,10.1,0000.0,0009.08,0003.29,0001.55
2023-04-27 21:51:00,,0822.0,5.00,0.00,28.7,27.2,00.0,37.0,30.3,09.7,0000.0,0009.54,0003.34,0001.57
2023-04-27 21:52:00,,0822.0,4.99,0.00,28.7,27.2,00.0,37.0,30.3,09.9,0000.0,0009.61,0003.38,0001.57
2023-04-27 21:53:00,,0822.0,4.99,0.00,28.8,27.3,00.0,37.0,30.3,10.1,0000.0,0009.30,0003.41,0001.58
2023-04-27 21:54:00,,0821.9,5.00,0.00,28.8,27.3,00.0,37.0,30.3,10.1,0000.0,0009.29,0003.40,0001.58
2023-04-27 21:55:00,,0821.9,5.01,0.00,28.8,27.3,00.0,37.1,30.3,10.0,0000.0,0009.30,0003.39,0001.56
2023-04-27 21:56:00,,0821.9,5.00,0.00,28.8,27.3,00.0,37.1,30.3,10.3,0000.0,0009.31,0003.39,0001.56
2023-04-27 21:57:00,,0822.0,5.00,0.00,28.8,27.3,00.0,37.1,30.4,10.1,0000.0,0009.21,0003.40,0001.55
2023-04-27 21:58:00,,0822.0,5.00,0.00,28.8,27.3,00.0,37.1,30.3,09.8,0000.0,0009.33,0003.41,0001.54
2023-04-27 21:59:00,,0822.1,5.00,0.00,28.8,27.3,00.0,37.1,30.4,10.0,0000.0,0009.16,0003.37,0001.52
